Location: Benque
(43.2594°N, 0.9178°E)
Time: 17:32:52
(UTC+00:00)

Cosmos 1943 - Pass Details

Date: 24 January 2020
Orbit: 833 x 850 km, 71.0° (Epoch: 22 February)

Event Time Altitude Azimuth Distance (km) Brightness Sun altitude
Rises 19:51:08 0° 335° (NNW) 3,399 6.7 -31.6°
Reaches altitude 10° 19:53:35 10° 335° (NNW) 2,464 5.9 -32.0°
Enters shadow 19:56:34 33° 336° (NNW) 1,392 4.4 -32.5°
